[Date Prev][Date Next][Thread Prev][Thread Next] - [Date Index][Thread Index][Author Index]

2 Line ISS Keps 3-10



ISS
1 25544U 98067A   03069.13358245  .00029927  00000-0  37418-3 0  7644
2 25544  51.6353 157.7418 0011599 297.5453 134.4755 15.59486291245558


----
Via the sarex mailing list at AMSAT.ORG courtesy of AMSAT-NA.
To unsubscribe, send "unsubscribe sarex" to Majordomo@amsat.org



AMSAT Top AMSAT Home